Weather History for Fitchburg, MA

Change the Weather History Date:

Sunday, December 8, 2013

  Actual Average (KORH) Record (KORH)
Temperature  
Mean Temperature 24 °F 32 °F  
Max Temperature 30 °F 39 °F 61 °F (1966)
Min Temperature 18 °F 25 °F -3 °F (1906)
Degree Days  
Heating Degree Days 41 33  
Month to date heating degree days 253  
Since 1 July heating degree days 1655  
Cooling Degree Days 0 0  
Month to date cooling degree days 0  
Year to date cooling degree days 471  
Moisture  
Dew Point 15 °F    
Average Humidity 65    
Maximum Humidity 85    
Minimum Humidity 47    
Precipitation  
Precipitation 0.00 in 0.13 in 1.76 in (1974)
Month to date precipitation 1.07  
Year to date precipitation 45.32  
Sea Level Pressure  
Sea Level Pressure 30.54 in    
Wind  
Wind Speed 2 mph (NNW)    
Max Wind Speed 8 mph    
Max Gust Speed -    
Visibility 10 miles    
Events      
T = Trace of Precipitation, MM = Missing Value Source: NWS Daily Summary

Daily Weather History Graph

Daily Weather History Graph

Search for Another Location

Airport:

Trip Planner

Search our weather history database for the weather conditions in past years. The results will help you decide how hot, cold, wet, or windy it might be!

Date:

Astronomy

Dec. 08, 2013 Rise Set
Actual Time 7:04 AM EST 4:13 PM EST
Civil Twilight 6:32 AM EST 4:45 PM EST
Nautical Twilight 5:57 AM EST 5:20 PM EST
Astronomical Twilight 5:22 AM EST 5:55 PM EST
Moon 11:17 AM EST (12/8) 11:06 PM EST (12/8)
Length of Visible Light 10h 13m
Length of Day
9h 09m
Waxing Crescent, 40% of the Moon is Illuminated
Dec 8
Waxing Crescent
Dec 9
First Quarter
Dec 17
Full
Dec 25
Last Quarter
Jan 1
New

Hourly Weather History & Observations

Time (EST) Temp. Windchill Dew Point Humidity Pressure Visibility Wind Dir Wind Speed Gust Speed Precip Events Conditions
12:52 AM 23.0 °F - 17.1 °F 78% 30.48 in 10.0 mi Calm Calm - N/A   Clear
1:52 AM 21.9 °F 17.2 °F 17.1 °F 82% 30.48 in 10.0 mi North 3.5 mph - N/A   Clear
2:52 AM 19.0 °F 13.9 °F 14.0 °F 81% 30.49 in 10.0 mi WNW 3.5 mph - N/A   Clear
3:52 AM 19.9 °F 13.4 °F 16.0 °F 85% 30.51 in 10.0 mi North 4.6 mph - N/A   Clear
4:52 AM 18.0 °F 11.1 °F 14.0 °F 84% 30.52 in 10.0 mi NNW 4.6 mph - N/A   Clear
5:52 AM 19.0 °F - 14.0 °F 81% 30.54 in 10.0 mi Calm Calm - N/A   Clear
6:52 AM 18.0 °F - 14.0 °F 84% 30.56 in 10.0 mi Calm Calm - N/A   Clear
7:52 AM 21.0 °F - 16.0 °F 81% 30.57 in 10.0 mi Calm Calm - N/A   Clear
8:52 AM 24.1 °F - 19.0 °F 81% 30.58 in 10.0 mi Calm Calm - N/A   Clear
9:52 AM 28.0 °F 24.2 °F 18.0 °F 66% 30.60 in 10.0 mi NW 3.5 mph - N/A   Clear
10:52 AM 30.0 °F - 16.0 °F 56% 30.60 in 10.0 mi Calm Calm - N/A   Clear
11:52 AM 30.0 °F 23.2 °F 14.0 °F 51% 30.56 in 10.0 mi NW 6.9 mph - N/A   Clear
12:52 PM 30.0 °F 24.1 °F 12.9 °F 49% 30.55 in 10.0 mi WNW 5.8 mph - N/A   Clear
1:52 PM 30.0 °F 22.4 °F 12.0 °F 47% 30.56 in 10.0 mi NW 8.1 mph - N/A   Clear
2:52 PM 30.0 °F 23.2 °F 12.0 °F 47% 30.53 in 10.0 mi NW 6.9 mph - N/A   Clear
3:52 PM 30.0 °F - 12.9 °F 49% 30.56 in 10.0 mi Calm Calm - N/A   Clear
4:52 PM 28.9 °F 25.2 °F 12.9 °F 51% 30.58 in 10.0 mi West 3.5 mph - N/A   Clear
5:52 PM 28.9 °F - 12.9 °F 51% 30.57 in 10.0 mi Calm Calm - N/A   Scattered Clouds
6:52 PM 28.9 °F - 15.1 °F 56% 30.57 in 10.0 mi Calm Calm - N/A   Overcast
7:52 PM 28.0 °F 22.8 °F 16.0 °F 61% 30.56 in 10.0 mi East 4.6 mph - N/A   Overcast
8:52 PM 28.9 °F - 16.0 °F 58% 30.55 in 10.0 mi Calm Calm - N/A   Overcast
9:52 PM 28.0 °F 22.8 °F 16.0 °F 61% 30.53 in 10.0 mi East 4.6 mph - N/A   Overcast
10:52 PM 28.0 °F 24.2 °F 16.0 °F 61% 30.51 in 10.0 mi NE 3.5 mph - N/A   Overcast
11:52 PM 28.0 °F - 16.0 °F 61% 30.51 in 10.0 mi Calm Calm - N/A   Overcast